K2ATL Weather Reports


time (UTC)temp
F
wind
direction
speed
knots
gust
knots
rain 1hr
in
rain 24hr
in
rain mn
in
humidity
%
barometer
mb
20260505124619 60 136 1.7 2.6 0.00 0.00 0.00 56 1100.3
20260505124115 60 144 0.9 1.7 0.00 0.00 0.00 57 1100.6
20260505123611 59 133 1.7 1.7 0.00 0.00 0.00 58 1100.6
20260505123108 59 142 0.0 1.7 0.00 0.00 0.00 58 1100.2
20260505122605 58 138 1.7 1.7 0.00 0.00 0.00 59 1100.4
20260505122102 59 119 0.9 2.6 0.00 0.00 0.00 59 1100.4
20260505121558 58 51 0.9 1.7 0.00 0.00 0.00 59 1100.4
20260505121055 58 137 0.9 1.7 0.00 0.00 0.00 59 1100.4
20260505120552 57 140 0.0 0.9 0.00 0.00 0.00 59 1100.4
20260505120047 58 138 1.7 2.6 0.00 0.00 0.00 59 1100.3
20260505115542 58 138 1.7 2.6 0.00 0.00 0.00 60 1100.3
20260505115040 57 131 0.9 1.7 0.00 0.00 0.00 59 1100.4
20260505114537 58 139 1.7 5.2 0.00 0.00 0.00 59 1100.3
20260505114033 57 137 1.7 2.6 0.00 0.00 0.00 59 1100.2
20260505113529 58 140 1.7 2.6 0.00 0.00 0.00 59 1100.1
20260505113026 58 139 1.7 2.6 0.00 0.00 0.00 58 1100.1
20260505112523 58 145 1.7 4.3 0.00 0.00 0.00 58 1100.0
20260505112021 58 143 1.7 2.6 0.00 0.00 0.00 58 1099.9
20260505111520 58 144 2.6 4.3 0.00 0.00 0.00 57 1099.7
20260505111016 58 138 1.7 2.6 0.00 0.00 0.00 56 1099.7
20260505110513 58 139 2.6 4.3 0.00 0.00 0.00 56 1099.7
20260505101945 59 69 2.6 5.2 0.00 0.00 0.00 54 1099.2
20260505101444 59 139 1.7 1.7 0.00 0.00 0.00 55 1099.5
20260505100940 59 71 0.9 2.6 0.00 0.00 0.00 55 1099.4
20260505100437 59 54 2.6 2.6 0.00 0.00 0.00 54 1099.4
20260505095933 59 90 0.9 2.6 0.00 0.00 0.00 54 1099.4
20260505095430 59 43 2.6 4.3 0.00 0.00 0.00 53 1099.5
20260505094926 59 131 0.9 2.6 0.00 0.00 0.00 54 1099.6
20260505094423 59 153 2.6 4.3 0.00 0.00 0.00 55 1099.4
20260505093919 59 60 1.7 2.6 0.00 0.00 0.00 54 1099.6
20260505093416 59 104 1.7 2.6 0.00 0.00 0.00 55 1099.9
20260505092913 59 131 1.7 2.6 0.00 0.00 0.00 55 1099.6
20260505092411 59 32 0.9 2.6 0.00 0.00 0.00 55 1099.6
20260505091908 59 137 2.6 4.3 0.00 0.00 0.00 54 1099.5
20260505091406 59 134 2.6 4.3 0.00 0.00 0.00 55 1099.7
20260505090904 59 49 1.7 4.3 0.00 0.00 0.00 56 1099.6
20260505090402 59 138 2.6 4.3 0.00 0.00 0.00 56 1099.7
20260505085859 59 120 0.9 4.3 0.00 0.00 0.00 55 1099.9
20260505085357 59 144 1.7 5.2 0.00 0.00 0.00 55 1099.7
20260505084855 59 140 4.3 5.2 0.00 0.00 0.00 55 1099.7
20260505084353 59 145 0.9 2.6 0.00 0.00 0.00 55 1099.7
20260505083850 60 142 3.5 5.2 0.00 0.00 0.00 55 1100.0
20260505083347 60 125 1.7 5.2 0.00 0.00 0.00 54 1100.0
20260505082844 60 139 3.5 4.3 0.00 0.00 0.00 54 1099.7
20260505082339 60 129 2.6 6.1 0.00 0.00 0.00 54 1100.0
20260505081836 60 136 3.5 5.2 0.00 0.00 0.00 54 1099.9
20260505081333 60 156 2.6 6.1 0.00 0.00 0.00 53 1099.7
20260505080830 60 130 3.5 5.2 0.00 0.00 0.00 53 1099.9
20260505080326 60 133 3.5 8.7 0.00 0.00 0.00 53 1099.9
20260505075821 60 135 4.3 7.0 0.00 0.00 0.00 53 1099.9
20260505075319 60 160 3.5 8.7 0.00 0.00 0.00 53 1099.9
20260505074816 60 134 3.5 7.0 0.00 0.00 0.00 53 1099.9
20260505074313 60 131 2.6 7.0 0.00 0.00 0.00 54 1100.1
20260505073810 60 145 3.5 7.0 0.00 0.00 0.00 54 1100.0
20260505073308 60 133 4.3 7.0 0.00 0.00 0.00 54 1099.7
20260505072805 60 141 2.6 6.1 0.00 0.00 0.00 54 1099.9
20260505072301 60 135 3.5 5.2 0.00 0.00 0.00 54 1099.7
20260505071756 60 134 3.5 5.2 0.00 0.00 0.00 54 1099.9
20260505071253 60 136 4.3 5.2 0.00 0.00 0.00 54 1100.0
20260505070751 60 133 3.5 5.2 0.00 0.00 0.00 54 1099.9
20260505070247 60 143 4.3 7.0 0.00 0.00 0.00 54 1099.9
20260505065743 60 132 3.5 6.1 0.00 0.00 0.00 54 1099.9
20260505065240 60 138 2.6 5.2 0.00 0.00 0.00 54 1100.0
20260505064737 60 134 4.3 6.1 0.00 0.00 0.00 54 1100.0
20260505064235 60 135 4.3 5.2 0.00 0.00 0.00 54 1100.0
20260505063732 60 134 3.5 6.1 0.00 0.00 0.00 54 1100.0
20260505063228 60 135 4.3 7.0 0.00 0.00 0.00 54 1099.9
20260505062725 60 145 5.2 7.0 0.00 0.00 0.00 53 1100.1
20260505062223 61 132 2.6 5.2 0.00 0.00 0.00 54 1100.0
20260505061719 61 133 3.5 5.2 0.00 0.00 0.00 53 1100.0
20260505061217 61 142 5.2 7.0 0.00 0.00 0.00 53 1100.2
20260505060714 60 141 4.3 5.2 0.00 0.00 0.00 53 1100.1
20260505060211 61 139 2.6 5.2 0.00 0.00 0.00 53 1100.0
20260505055706 61 122 2.6 5.2 0.00 0.00 0.00 53 1100.3
20260505055203 61 132 3.5 6.1 0.00 0.00 0.00 52 1100.1
20260505054700 60 133 0.9 2.6 0.00 0.00 0.00 54 1100.2
20260505054158 61 50 1.7 2.6 0.00 0.00 0.00 54 1100.3
20260505053656 61 135 4.3 6.1 0.00 0.00 0.00 53 1100.2
20260505053152 61 134 4.3 7.0 0.00 0.00 0.00 52 1100.4
20260505052649 61 140 4.3 7.0 0.00 0.00 0.00 52 1100.3
20260505052146 61 142 4.3 7.0 0.00 0.00 0.00 52 1100.4
20260505051643 61 119 3.5 6.1 0.00 0.00 0.00 52 1100.3
20260505051142 62 132 2.6 6.1 0.00 0.00 0.00 52 1100.3
20260505050639 62 133 3.5 7.0 0.00 0.00 0.00 52 1100.2
20260505050137 62 142 4.3 7.0 0.00 0.00 0.00 53 1100.2
20260505041607 62 134 4.3 6.1 0.00 0.00 0.00 51 1100.2
20260505041104 62 130 4.3 5.2 0.00 0.00 0.00 51 1100.2
20260505040601 62 148 3.5 5.2 0.00 0.00 0.00 51 1100.0
20260505040058 62 130 0.9 4.3 0.00 0.00 0.00 51 1100.2
20260505035555 62 109 1.7 2.6 0.00 0.00 0.00 51 1100.2
20260505035051 62 101 1.7 4.3 0.00 0.00 0.00 51 1100.3
20260505034548 62 126 3.5 7.0 0.00 0.00 0.00 50 1100.3
20260505034044 62 137 3.5 5.2 0.00 0.00 0.00 50 1100.3
20260505033542 62 120 4.3 5.2 0.00 0.00 0.00 50 1100.3
20260505033040 62 130 3.5 6.1 0.00 0.00 0.00 51 1100.1
20260505032537 62 136 5.2 6.1 0.00 0.00 0.00 51 1100.1
20260505032033 62 124 2.6 6.1 0.00 0.00 0.00 51 1100.4
20260505031531 62 131 3.5 6.1 0.00 0.00 0.00 51 1100.3
20260505031027 62 133 3.5 4.3 0.00 0.00 0.00 51 1100.2
20260505030524 62 132 2.6 5.2 0.00 0.00 0.00 51 1100.2
20260505030020 63 133 4.3 5.2 0.00 0.00 0.00 51 1100.5
20260505025516 63 144 4.3 6.1 0.00 0.00 0.00 52 1100.4
20260505025016 62 139 2.6 6.1 0.00 0.00 0.00 53 1100.4
20260505024512 63 140 2.6 5.2 0.00 0.00 0.00 54 1100.4
20260505024009 63 139 3.5 5.2 0.00 0.00 0.00 54 1100.4
20260505023506 63 154 4.3 5.2 0.00 0.00 0.00 54 1100.5
20260505023004 63 132 2.6 4.3 0.00 0.00 0.00 54 1100.4
20260505022501 63 136 1.7 5.2 0.00 0.00 0.00 55 1100.3
20260505021958 63 136 2.6 4.3 0.00 0.00 0.00 55 1100.1
20260505021454 64 128 2.6 5.2 0.00 0.00 0.00 54 1100.2
20260505020950 64 135 2.6 5.2 0.00 0.00 0.00 55 1100.1
20260505020445 64 140 2.6 4.3 0.00 0.00 0.00 55 1100.1
20260505015943 64 134 2.6 5.2 0.00 0.00 0.00 55 1100.2
20260505015440 64 138 2.6 5.2 0.00 0.00 0.00 55 1100.1
20260505014937 64 141 1.7 2.6 0.00 0.00 0.00 56 1100.0
20260505014433 64 132 2.6 4.3 0.00 0.00 0.00 55 1100.0
20260505013931 64 139 1.7 2.6 0.00 0.00 0.00 56 1099.9
20260505013428 64 123 0.9 2.6 0.00 0.00 0.00 56 1100.0
20260505012926 64 128 0.9 2.6 0.00 0.00 0.00 55 1099.7
20260505012423 64 141 1.7 1.7 0.00 0.00 0.00 56 1100.0
20260505011919 64 46 0.9 1.7 0.00 0.00 0.00 56 1099.7
20260505011416 64 56 1.7 1.7 0.00 0.00 0.00 56 1099.9
20260505010913 64 48 1.7 1.7 0.00 0.00 0.00 55 1099.7
20260505010408 64 55 1.7 2.6 0.00 0.00 0.00 55 1099.7
20260505005904 64 57 1.7 1.7 0.00 0.00 0.00 55 1099.5
20260505005401 65 69 0.9 1.7 0.00 0.00 0.00 55 1099.5
20260505004859 65 103 0.0 0.9 0.00 0.00 0.00 54 1099.6
20260505004355 65 120 0.9 1.7 0.00 0.00 0.00 54 1099.6
20260505003853 66 136 1.7 2.6 0.00 0.00 0.00 52 1099.6
20260505003350 66 129 1.7 1.7 0.00 0.00 0.00 52 1099.5
20260505002845 66 117 0.9 0.9 0.00 0.00 0.00 52 1099.5
20260505002342 66 117 0.0 1.7 0.00 0.00 0.00 51 1099.4
20260505001841 67 135 0.0 0.9 0.00 0.00 0.00 51 1099.4
20260505001337 68 142 0.9 0.9 0.00 0.00 0.00 49 1099.4
20260505000835 68 143 1.7 1.7 0.00 0.00 0.00 49 1099.3
20260505000333 68 146 0.9 2.6 0.00 0.00 0.00 49 1099.5
20260504235829 68 141 0.9 2.6 0.00 0.00 0.00 48 1099.4
20260504235326 68 143 0.9 1.7 0.00 0.00 0.00 49 1099.5
20260504234823 69 144 0.9 1.7 0.00 0.00 0.00 49 1099.6
20260504234320 69 140 0.0 2.6 0.00 0.00 0.00 48 1099.4
20260504233817 70 158 0.9 2.6 0.00 0.00 0.00 47 1099.5
20260504233313 71 139 0.0 2.6 0.00 0.00 0.00 47 1099.5
20260504232809 70 152 2.6 5.2 0.00 0.00 0.00 46 1099.5
20260504232307 70 143 2.6 4.3 0.00 0.00 0.00 49 1099.5
20260504231804 70 111 1.7 4.3 0.00 0.00 0.00 49 1099.6
20260504231300 70 153 4.3 7.0 0.00 0.00 0.00 48 1099.6
20260504230755 69 156 3.5 4.3 0.00 0.00 0.00 49 1099.5
20260504230254 69 128 3.5 7.0 0.00 0.00 0.00 49 1099.3
20260504225753 69 124 5.2 6.1 0.00 0.00 0.00 49 1099.5
20260504225249 69 153 7.0 7.8 0.00 0.00 0.00 49 1099.4
20260504224746 69 156 2.6 7.0 0.00 0.00 0.00 49 1099.5
20260504224243 69 143 4.3 7.0 0.00 0.00 0.00 48 1099.6
20260504223739 69 153 3.5 6.1 0.00 0.00 0.00 49 1099.4
20260504223235 70 115 3.5 7.0 0.00 0.00 0.00 49 1099.5
20260504222732 70 116 3.5 4.3 0.00 0.00 0.00 47 1099.6
20260504222229 70 177 0.9 5.2 0.00 0.00 0.00 47 1099.5
20260504221726 71 164 3.5 7.8 0.00 0.00 0.00 46 1099.7
20260504221223 71 139 2.6 7.8 0.00 0.00 0.00 45 1099.6
20260504220720 71 150 4.3 7.0 0.00 0.00 0.00 45 1099.6
20260504220217 71 168 2.6 6.1 0.00 0.00 0.00 44 1099.6
20260504215714 71 147 0.9 8.7 0.00 0.00 0.00 43 1099.6
20260504215211 71 267 2.6 4.3 0.00 0.00 0.00 44 1099.7
20260504214707 71 174 2.6 6.1 0.00 0.00 0.00 42 1099.6
20260504214203 71 165 6.1 7.8 0.00 0.00 0.00 43 1099.6
20260504213700 71 241 1.7 4.3 0.00 0.00 0.00 43 1099.4
20260504213157 72 138 2.6 7.0 0.00 0.00 0.00 40 1099.5
20260504212654 72 138 0.9 2.6 0.00 0.00 0.00 42 1099.5
20260504212150 72 173 2.6 7.0 0.00 0.00 0.00 39 1099.5
20260504211648 72 149 4.3 7.8 0.00 0.00 0.00 39 1099.4
20260504211144 72 142 3.5 7.0 0.00 0.00 0.00 40 1099.5
20260504210642 73 138 5.2 7.0 0.00 0.00 0.00 40 1099.2
20260504210138 71 172 0.9 5.2 0.00 0.00 0.00 41 1099.5
20260504205636 70 314 0.9 2.6 0.00 0.00 0.00 44 1099.6
20260504205133 71 164 1.7 5.2 0.00 0.00 0.00 41 1099.6
20260504204631 73 224 0.9 2.6 0.00 0.00 0.00 40 1099.6
20260504204130 73 129 2.6 5.2 0.00 0.00 0.00 39 1099.7
20260504203628 73 149 1.7 4.3 0.00 0.00 0.00 41 1099.6
20260504203125 71 161 0.0 2.6 0.00 0.00 0.00 42 1099.9
20260504202625 72 149 3.5 7.8 0.00 0.00 0.00 40 1099.9
20260504202123 69 132 1.7 2.6 0.00 0.00 0.00 41 1099.9
20260504201619 72 137 6.1 7.0 0.00 0.00 0.00 40 1100.0
20260504201117 74 149 2.6 7.8 0.00 0.00 0.00 39 1099.9
20260504200614 74 145 3.5 7.8 0.00 0.00 0.00 39 1099.9
20260504200110 76 204 1.7 6.1 0.00 0.00 0.00 38 1100.0
20260504195606 76 125 3.5 7.8 0.00 0.00 0.00 36 1100.2
20260504195057 76 179 1.7 4.3 0.00 0.00 0.00 37 1100.3
20260504194554 73 153 2.6 6.1 0.00 0.00 0.00 38 1100.1
20260504194049 74 314 1.7 6.1 0.00 0.00 0.00 40 1100.3
20260504193546 72 309 1.7 4.3 0.00 0.00 0.00 41 1100.4
20260504193045 73 136 7.0 7.8 0.00 0.00 0.00 39 1100.5
20260504192543 70 143 2.6 2.6 0.00 0.00 0.00 42 1100.7
20260504192041 68 112 1.7 4.3 0.00 0.00 0.00 44 1100.6
20260504191538 72 159 3.5 7.0 0.00 0.00 0.00 41 1100.6
20260504191034 73 144 0.9 6.1 0.00 0.00 0.00 39 1100.7
20260504190531 72 120 1.7 6.1 0.00 0.00 0.00 40 1100.6
20260504190027 70 149 2.6 4.3 0.00 0.00 0.00 42 1100.8
20260504185524 69 10 4.3 6.1 0.00 0.00 0.00 42 1100.6
20260504185020 71 141 1.7 2.6 0.00 0.00 0.00 41 1100.7
20260504184516 70 143 0.9 1.7 0.00 0.00 0.00 41 1100.8
20260504184012 68 333 1.7 5.2 0.00 0.00 0.00 41 1100.9
20260504183509 72 158 1.7 2.6 0.00 0.00 0.00 41 1100.8
20260504183008 73 15 0.9 7.0 0.00 0.00 0.00 41 1101.0
20260504182503 71 292 1.7 4.3 0.00 0.00 0.00 40 1100.9
20260504182001 70 171 2.6 4.3 0.00 0.00 0.00 45 1101.0
20260504181458 69 263 1.7 2.6 0.00 0.00 0.00 45 1101.1
20260504180956 71 352 0.9 2.6 0.00 0.00 0.00 40 1101.4
20260504180455 70 162 3.5 6.1 0.00 0.00 0.00 44 1101.5
20260504175953 65 39 0.0 2.6 0.00 0.00 0.00 47 1101.5
20260504175449 68 13 2.6 4.3 0.00 0.00 0.00 46 1101.5
20260504174947 69 7 4.3 7.8 0.00 0.00 0.00 45 1101.5
20260504174444 66 243 0.9 4.3 0.00 0.00 0.00 48 1101.7
20260504173941 66 149 0.9 6.1 0.00 0.00 0.00 48 1101.5
20260504173437 66 262 2.6 5.2 0.00 0.00 0.00 46 1101.7
20260504172936 67 251 1.7 6.1 0.00 0.00 0.00 45 1101.6
20260504172431 64 140 0.9 1.7 0.00 0.00 0.00 47 1101.8
20260504171928 68 146 5.2 7.0 0.00 0.00 0.00 44 1101.9
20260504171425 66 237 1.7 7.0 0.00 0.00 0.00 47 1101.8
20260504170922 68 177 2.6 5.2 0.00 0.00 0.00 45 1102.0
20260504170418 66 168 4.3 6.1 0.00 0.00 0.00 47 1101.8
20260504160337 64 177 2.6 5.2 0.00 0.00 0.00 47 1102.5
20260504150802 57 272 3.5 5.2 0.00 0.00 0.00 54 1103.1
20260504150259 57 226 2.6 5.2 0.00 0.00 0.00 51 1103.1
20260504141229 56 186 2.6 4.3 0.00 0.00 0.00 54 1103.2
20260504140725 56 200 1.7 2.6 0.00 0.00 0.00 55 1103.1
20260504140220 54 315 1.7 1.7 0.00 0.00 0.00 58 1103.2
20260504130649 54 4 0.0 0.9 0.00 0.00 0.00 48 1102.8
20260504130145 55 49 0.9 0.9 0.00 0.00 0.00 46 1103.2